Location: Bucquoy
(50.1391°N, 2.7097°E)
Time: 03:48:17
(UTC+00:00)

SeaSat 1 - Pass Details

Date: 06 May 2021
Orbit: 745 x 746 km, 108.0° (Epoch: 22 June)

Event Time Altitude Azimuth Distance (km) Brightness Sun altitude
Rises 01:37:41 0° 23° (NNE) 3,202 7.4 -18.9°
Reaches altitude 10° 01:40:26 10° 8° (N) 2,275 6.0 -18.7°
Maximum altitude 01:44:03 21° 321° (NW) 1,646 4.4 -18.4°
Drops below altitude 10° 01:47:39 10° 274° (W) 2,267 4.7 -18.1°
Enters shadow 01:47:52 - 272° (W) 2,329 4.7 -18.1°
